| time (UTC) | temp C | wind direction | speed KPH | gust KPH | rain 1hr cm | rain 24hr cm | rain mn cm | humidity % | barometer mb |
| 20260906115908 | 17 | 37 | 0.0 | 1.6 | 0.00 | 0.00 | 0.00 | 99 | 1021.6 |
| 20260906115404 | 17 | 41 | 1.6 | 3.2 | 0.00 | 0.00 | 0.00 | 99 | 1021.4 |
| 20260906114902 | 17 | 352 | 0.0 | 1.6 | 0.00 | 0.00 | 0.00 | 99 | 1021.5 |
| 20260906114358 | 17 | 321 | 0.0 | 3.2 | 0.00 | 0.00 | 0.00 | 99 | 1021.5 |
| 20260906113854 | 17 | 59 | 0.0 | 1.6 | 0.00 | 0.00 | 0.00 | 99 | 1021.3 |
| 20260906113352 | 17 | 66 | 0.0 | 1.6 | 0.00 | 0.00 | 0.00 | 99 | 1021.2 |
| 20260906112848 | 17 | 41 | 0.0 | 3.2 | 0.00 | 0.00 | 0.00 | 99 | 1021.1 |
| 20260906112343 | 17 | 49 | 0.0 | 3.2 | 0.00 | 0.00 | 0.00 | 99 | 1021.1 |
| 20260906111838 | 17 | 31 | 0.0 | 3.2 | 0.00 | 0.00 | 0.00 | 99 | 1021.2 |
| 20260906111338 | 17 | 69 | 0.0 | 3.2 | 0.00 | 0.00 | 0.00 | 99 | 1021.4 |
| 20260906110833 | 17 | 48 | 0.0 | 3.2 | 0.00 | 0.00 | 0.00 | 99 | 1021.3 |
| 20260906110329 | 17 | 44 | 0.0 | 3.2 | 0.00 | 0.00 | 0.00 | 99 | 1021.2 |
| 20260906105827 | 17 | 319 | 0.0 | 1.6 | 0.00 | 0.00 | 0.00 | 99 | 1021.1 |
| 20260906105323 | 17 | 0 | 0.0 | 4.8 | 0.00 | 0.00 | 0.00 | 99 | 1021.1 |
| 20260906104819 | 17 | 32 | 0.0 | 3.2 | 0.00 | 0.00 | 0.00 | 99 | 1021.1 |
| 20260906104318 | 17 | 126 | 0.0 | 4.8 | 0.00 | 0.00 | 0.00 | 99 | 1021.0 |
| 20260906103816 | 17 | 49 | 0.0 | 1.6 | 0.00 | 0.00 | 0.00 | 99 | 1021.2 |
| 20260906103315 | 17 | 358 | 1.6 | 3.2 | 0.00 | 0.00 | 0.00 | 99 | 1020.7 |
| 20260906102811 | 17 | 74 | 0.0 | 3.2 | 0.00 | 0.00 | 0.00 | 99 | 1020.8 |
| 20260906102310 | 17 | 326 | 0.0 | 4.8 | 0.00 | 0.00 | 0.00 | 99 | 1021.2 |
| 20260906101805 | 17 | 50 | 0.0 | 1.6 | 0.00 | 0.00 | 0.00 | 99 | 1021.0 |
| 20260906101300 | 17 | 262 | 0.0 | 3.2 | 0.00 | 0.00 | 0.00 | 99 | 1021.0 |
| 20260906100756 | 17 | 269 | 0.0 | 3.2 | 0.00 | 0.00 | 0.00 | 99 | 1020.7 |
| 20260906100255 | 17 | 57 | 0.0 | 3.2 | 0.00 | 0.00 | 0.00 | 99 | 1020.6 |
| 20260906095750 | 17 | 342 | 1.6 | 3.2 | 0.00 | 0.00 | 0.00 | 99 | 1020.5 |
| 20260906095245 | 17 | 333 | 0.0 | 4.8 | 0.00 | 0.00 | 0.00 | 99 | 1020.5 |
| 20260906094744 | 17 | 22 | 0.0 | 6.4 | 0.00 | 0.00 | 0.00 | 99 | 1020.4 |
| 20260906094240 | 17 | 32 | 0.0 | 4.8 | 0.00 | 0.00 | 0.00 | 99 | 1020.5 |
| 20260906093736 | 17 | 3 | 1.6 | 4.8 | 0.00 | 0.00 | 0.00 | 99 | 1020.6 |
| 20260906093231 | 17 | 89 | 0.0 | 4.8 | 0.00 | 0.00 | 0.00 | 99 | 1020.5 |
| 20260906092726 | 17 | 354 | 0.0 | 4.8 | 0.00 | 0.00 | 0.00 | 99 | 1020.8 |
| 20260906092220 | 17 | 256 | 0.0 | 4.8 | 0.00 | 0.00 | 0.00 | 99 | 1020.5 |
| 20260906091717 | 17 | 47 | 3.2 | 4.8 | 0.00 | 0.00 | 0.00 | 99 | 1020.3 |
| 20260906091213 | 17 | 36 | 0.0 | 4.8 | 0.00 | 0.00 | 0.00 | 99 | 1020.6 |
| 20260906090709 | 17 | 37 | 0.0 | 3.2 | 0.00 | 0.00 | 0.00 | 99 | 1020.4 |
| 20260906090208 | 17 | 105 | 0.0 | 6.4 | 0.00 | 0.00 | 0.00 | 99 | 1020.6 |
| 20260906085707 | 17 | 35 | 3.2 | 4.8 | 0.00 | 0.00 | 0.00 | 99 | 1020.7 |
| 20260906085206 | 17 | 54 | 0.0 | 4.8 | 0.00 | 0.00 | 0.00 | 99 | 1020.3 |
| 20260906084701 | 17 | 11 | 3.2 | 4.8 | 0.00 | 0.00 | 0.00 | 99 | 1020.5 |
| 20260906084155 | 17 | 359 | 3.2 | 4.8 | 0.00 | 0.00 | 0.00 | 99 | 1020.7 |
| 20260906083650 | 17 | 50 | 0.0 | 3.2 | 0.00 | 0.00 | 0.00 | 99 | 1020.4 |
| 20260906083145 | 17 | 131 | 0.0 | 3.2 | 0.00 | 0.00 | 0.00 | 99 | 1020.6 |
| 20260906082640 | 17 | 32 | 0.0 | 3.2 | 0.00 | 0.00 | 0.00 | 99 | 1020.5 |
| 20260906082136 | 17 | 40 | 1.6 | 3.2 | 0.00 | 0.00 | 0.00 | 99 | 1020.5 |
| 20260906081632 | 17 | 38 | 0.0 | 3.2 | 0.00 | 0.00 | 0.00 | 99 | 1020.6 |
| 20260906081126 | 17 | 359 | 1.6 | 4.8 | 0.00 | 0.00 | 0.00 | 99 | 1020.4 |
| 20260906080623 | 17 | 4 | 0.0 | 3.2 | 0.00 | 0.00 | 0.00 | 99 | 1020.2 |
| 20260906080119 | 17 | 52 | 0.0 | 3.2 | 0.00 | 0.00 | 0.00 | 99 | 1020.1 |
| 20260906075612 | 17 | 313 | 0.0 | 3.2 | 0.00 | 0.00 | 0.00 | 99 | 1020.3 |
| 20260906075107 | 17 | 49 | 0.0 | 1.6 | 0.00 | 0.00 | 0.00 | 99 | 1020.3 |
| 20260906074603 | 17 | 129 | 0.0 | 0.0 | 0.00 | 0.00 | 0.00 | 99 | 1020.4 |
| 20260906074101 | 17 | 76 | 0.0 | 0.0 | 0.00 | 0.00 | 0.00 | 99 | 1020.2 |
| 20260906073557 | 17 | 76 | 0.0 | 1.6 | 0.00 | 0.00 | 0.00 | 99 | 1020.4 |
| 20260906073052 | 17 | 107 | 0.0 | 1.6 | 0.00 | 0.00 | 0.00 | 99 | 1020.4 |
| 20260906072547 | 17 | 130 | 0.0 | 1.6 | 0.00 | 0.00 | 0.00 | 99 | 1020.4 |
| 20260906072043 | 17 | 230 | 0.0 | 1.6 | 0.00 | 0.00 | 0.00 | 99 | 1020.5 |
| 20260906071539 | 17 | 89 | 0.0 | 0.0 | 0.00 | 0.00 | 0.00 | 99 | 1020.4 |
| 20260906071034 | 17 | 114 | 0.0 | 1.6 | 0.00 | 0.00 | 0.00 | 99 | 1020.3 |
| 20260906070530 | 17 | 99 | 0.0 | 3.2 | 0.00 | 0.00 | 0.00 | 99 | 1020.2 |
| 20260906070026 | 17 | 134 | 0.0 | 3.2 | 0.00 | 0.00 | 0.00 | 99 | 1020.5 |
| 20260906065525 | 17 | 89 | 0.0 | 1.6 | 0.00 | 0.00 | 0.00 | 99 | 1020.5 |
| 20260906065021 | 17 | 142 | 0.0 | 0.0 | 0.00 | 0.00 | 0.00 | 99 | 1020.3 |
| 20260906064516 | 18 | 130 | 0.0 | 3.2 | 0.00 | 0.00 | 0.00 | 99 | 1020.3 |
| 20260906064011 | 18 | 245 | 0.0 | 3.2 | 0.00 | 0.00 | 0.00 | 99 | 1020.6 |
| 20260906063507 | 18 | 235 | 0.0 | 1.6 | 0.00 | 0.00 | 0.00 | 99 | 1020.4 |
| 20260906063002 | 18 | 250 | 0.0 | 3.2 | 0.00 | 0.00 | 0.00 | 99 | 1020.4 |
| 20260906062457 | 18 | 269 | 0.0 | 1.6 | 0.00 | 0.00 | 0.00 | 99 | 1020.2 |
| 20260906061951 | 18 | 23 | 0.0 | 3.2 | 0.00 | 0.00 | 0.00 | 99 | 1020.6 |
| 20260906061447 | 18 | 124 | 0.0 | 1.6 | 0.00 | 0.00 | 0.00 | 99 | 1020.3 |
| 20260906060942 | 18 | 269 | 0.0 | 6.4 | 0.00 | 0.00 | 0.00 | 99 | 1020.3 |
| 20260906060439 | 18 | 358 | 0.0 | 4.8 | 0.00 | 0.00 | 0.00 | 99 | 1020.6 |
| 20260906055935 | 18 | 8 | 0.0 | 4.8 | 0.00 | 0.00 | 0.00 | 99 | 1020.4 |
| 20260906055431 | 18 | 339 | 1.6 | 4.8 | 0.00 | 0.00 | 0.00 | 99 | 1020.4 |
| 20260906054926 | 18 | 27 | 3.2 | 4.8 | 0.00 | 0.00 | 0.00 | 99 | 1020.6 |
| 20260906054421 | 18 | 19 | 0.0 | 3.2 | 0.00 | 0.00 | 0.00 | 99 | 1020.5 |
| 20260906053917 | 18 | 11 | 3.2 | 4.8 | 0.00 | 0.00 | 0.00 | 99 | 1020.4 |
| 20260906053412 | 18 | 37 | 0.0 | 6.4 | 0.00 | 0.00 | 0.00 | 99 | 1020.2 |
| 20260906052908 | 18 | 233 | 0.0 | 4.8 | 0.00 | 0.00 | 0.00 | 99 | 1020.4 |
| 20260906052404 | 18 | 266 | 0.0 | 4.8 | 0.00 | 0.00 | 0.00 | 99 | 1020.3 |
| 20260906051901 | 18 | 35 | 0.0 | 3.2 | 0.00 | 0.00 | 0.00 | 99 | 1020.2 |
| 20260906051401 | 18 | 359 | 3.2 | 6.4 | 0.00 | 0.00 | 0.00 | 99 | 1020.2 |
| 20260906050856 | 18 | 3 | 0.0 | 3.2 | 0.00 | 0.00 | 0.00 | 99 | 1020.1 |
| 20260906050350 | 18 | 269 | 0.0 | 3.2 | 0.00 | 0.00 | 0.00 | 99 | 1020.0 |
| 20260906045849 | 18 | 0 | 4.8 | 6.4 | 0.00 | 0.00 | 0.00 | 99 | 1020.0 |
| 20260906045344 | 19 | 346 | 1.6 | 4.8 | 0.00 | 0.00 | 0.00 | 99 | 1020.1 |
| 20260906044840 | 19 | 352 | 0.0 | 6.4 | 0.00 | 0.00 | 0.00 | 99 | 1019.9 |
| 20260906044340 | 19 | 352 | 1.6 | 4.8 | 0.00 | 0.00 | 0.00 | 99 | 1020.1 |
| 20260906043836 | 19 | 249 | 0.0 | 4.8 | 0.00 | 0.00 | 0.00 | 99 | 1019.7 |
| 20260906043332 | 19 | 343 | 4.8 | 6.4 | 0.00 | 0.00 | 0.00 | 99 | 1020.0 |
| 20260906042827 | 19 | 356 | 3.2 | 4.8 | 0.00 | 0.00 | 0.00 | 99 | 1019.8 |
| 20260906042325 | 19 | 352 | 4.8 | 6.4 | 0.00 | 0.00 | 0.00 | 99 | 1019.8 |
| 20260906041821 | 19 | 339 | 4.8 | 8.0 | 0.00 | 0.00 | 0.00 | 99 | 1019.6 |
| 20260906041317 | 19 | 329 | 3.2 | 8.0 | 0.00 | 0.00 | 0.00 | 99 | 1019.6 |
| 20260906040811 | 19 | 0 | 3.2 | 6.4 | 0.00 | 0.00 | 0.00 | 99 | 1019.7 |
| 20260906040307 | 19 | 343 | 0.0 | 8.0 | 0.00 | 0.00 | 0.00 | 99 | 1019.8 |
| 20260906035802 | 19 | 16 | 6.4 | 8.0 | 0.00 | 0.00 | 0.00 | 99 | 1019.6 |
| 20260906035258 | 19 | 358 | 3.2 | 4.8 | 0.00 | 0.00 | 0.00 | 99 | 1019.8 |
| 20260906034757 | 19 | 4 | 0.0 | 6.4 | 0.00 | 0.00 | 0.00 | 99 | 1019.5 |
| 20260906034252 | 19 | 9 | 3.2 | 9.7 | 0.00 | 0.00 | 0.00 | 99 | 1019.5 |
| 20260906033748 | 19 | 316 | 3.2 | 4.8 | 0.00 | 0.00 | 0.00 | 99 | 1019.7 |
| 20260906033247 | 19 | 309 | 0.0 | 4.8 | 0.00 | 0.00 | 0.00 | 99 | 1019.4 |
| 20260906032744 | 19 | 352 | 3.2 | 11.3 | 0.00 | 0.00 | 0.00 | 99 | 1019.5 |
| 20260906032243 | 20 | 13 | 1.6 | 8.0 | 0.00 | 0.00 | 0.00 | 99 | 1019.3 |
| 20260906031739 | 20 | 354 | 3.2 | 11.3 | 0.00 | 0.00 | 0.00 | 99 | 1019.7 |
| 20260906031235 | 20 | 3 | 6.4 | 8.0 | 0.00 | 0.00 | 0.00 | 99 | 1019.6 |
| 20260906030729 | 20 | 350 | 3.2 | 8.0 | 0.00 | 0.00 | 0.00 | 99 | 1019.4 |
| 20260906030224 | 20 | 356 | 4.8 | 11.3 | 0.00 | 0.00 | 0.00 | 99 | 1019.4 |
| 20260906025723 | 20 | 6 | 3.2 | 9.7 | 0.00 | 0.00 | 0.00 | 99 | 1019.2 |
| 20260906025218 | 20 | 9 | 4.8 | 9.7 | 0.00 | 0.00 | 0.00 | 99 | 1019.5 |
| 20260906024717 | 20 | 266 | 0.0 | 6.4 | 0.00 | 0.00 | 0.00 | 99 | 1019.8 |
| 20260906024216 | 20 | 7 | 4.8 | 8.0 | 0.00 | 0.00 | 0.00 | 99 | 1019.5 |
| 20260906023712 | 20 | 8 | 6.4 | 12.9 | 0.00 | 0.00 | 0.00 | 99 | 1019.4 |
| 20260906023207 | 20 | 352 | 3.2 | 14.5 | 0.00 | 0.00 | 0.00 | 99 | 1019.3 |
| 20260906022702 | 20 | 30 | 12.9 | 12.9 | 0.00 | 0.00 | 0.00 | 99 | 1019.4 |
| 20260906022158 | 20 | 39 | 0.0 | 9.7 | 0.00 | 0.00 | 0.00 | 99 | 1019.2 |
| 20260906021654 | 20 | 24 | 6.4 | 9.7 | 0.00 | 0.00 | 0.00 | 99 | 1019.4 |
| 20260906021152 | 20 | 75 | 3.2 | 11.3 | 0.00 | 0.00 | 0.00 | 99 | 1019.5 |
| 20260906020647 | 20 | 329 | 1.6 | 17.7 | 0.00 | 0.00 | 0.00 | 98 | 1019.4 |
| 20260906020142 | 20 | 358 | 4.8 | 6.4 | 0.00 | 0.00 | 0.00 | 98 | 1019.7 |
| 20260906015636 | 20 | 344 | 6.4 | 11.3 | 0.00 | 0.00 | 0.00 | 98 | 1019.3 |
| 20260906015134 | 20 | 335 | 8.0 | 14.5 | 0.00 | 0.00 | 0.00 | 97 | 1019.3 |
| 20260906014629 | 20 | 346 | 8.0 | 17.7 | 0.00 | 0.00 | 0.00 | 97 | 1019.4 |
| 20260906014125 | 20 | 353 | 1.6 | 11.3 | 0.00 | 0.00 | 0.00 | 97 | 1019.4 |
| 20260906013620 | 21 | 359 | 3.2 | 12.9 | 0.00 | 0.00 | 0.00 | 97 | 1019.4 |
| 20260906013116 | 21 | 356 | 4.8 | 19.3 | 0.00 | 0.00 | 0.00 | 97 | 1019.5 |
| 20260906012611 | 21 | 349 | 3.2 | 17.7 | 0.00 | 0.00 | 0.00 | 97 | 1019.5 |
| 20260906012110 | 21 | 355 | 4.8 | 11.3 | 0.00 | 0.00 | 0.00 | 97 | 1019.5 |
| 20260906011607 | 21 | 5 | 3.2 | 6.4 | 0.00 | 0.00 | 0.00 | 97 | 1019.3 |
| 20260906011101 | 21 | 37 | 8.0 | 17.7 | 0.00 | 0.00 | 0.00 | 97 | 1019.2 |
| 20260906010556 | 21 | 356 | 4.8 | 14.5 | 0.00 | 0.00 | 0.00 | 97 | 1019.3 |
| 20260906010053 | 21 | 347 | 8.0 | 11.3 | 0.00 | 0.00 | 0.00 | 97 | 1019.6 |
| 20260906005551 | 21 | 317 | 3.2 | 11.3 | 0.00 | 0.00 | 0.00 | 98 | 1019.2 |
| 20260906005051 | 21 | 84 | 1.6 | 11.3 | 0.00 | 0.00 | 0.00 | 98 | 1019.1 |
| 20260906004550 | 21 | 338 | 4.8 | 14.5 | 0.00 | 0.00 | 0.00 | 98 | 1019.1 |
| 20260906004045 | 21 | 7 | 4.8 | 17.7 | 0.00 | 0.00 | 0.00 | 98 | 1019.0 |
| 20260906003540 | 21 | 352 | 4.8 | 14.5 | 0.00 | 0.00 | 0.00 | 97 | 1018.8 |
| 20260906003036 | 21 | 2 | 3.2 | 11.3 | 0.00 | 0.00 | 0.00 | 98 | 1019.1 |
| 20260906002531 | 21 | 359 | 3.2 | 9.7 | 0.00 | 0.00 | 0.00 | 98 | 1019.1 |
| 20260906002026 | 21 | 343 | 6.4 | 19.3 | 0.00 | 0.00 | 0.00 | 98 | 1019.0 |
| 20260906001521 | 21 | 4 | 8.0 | 14.5 | 0.00 | 0.00 | 0.00 | 98 | 1019.0 |
| 20260906001015 | 21 | 336 | 9.7 | 29.0 | 0.00 | 0.00 | 0.00 | 98 | 1019.1 |
| 20260906000512 | 21 | 351 | 8.0 | 12.9 | 0.00 | 0.00 | 0.00 | 98 | 1019.1 |
| 20260906000006 | 21 | 347 | 9.7 | 27.4 | 0.00 | 0.00 | 0.00 | 97 | 1018.9 |
| 20260905235500 | 21 | 8 | 6.4 | 17.7 | 0.00 | 0.00 | 0.00 | 97 | 1018.9 |
| 20260905234955 | 21 | 358 | 6.4 | 19.3 | 0.00 | 0.00 | 0.00 | 97 | 1019.0 |
| 20260905234450 | 21 | 351 | 11.3 | 20.9 | 0.00 | 0.00 | 0.00 | 96 | 1019.0 |
| 20260905233944 | 21 | 348 | 4.8 | 24.1 | 0.00 | 0.00 | 0.00 | 96 | 1019.1 |
| 20260905233440 | 21 | 11 | 8.0 | 19.3 | 0.00 | 0.00 | 0.00 | 96 | 1019.1 |
| 20260905232938 | 21 | 329 | 3.2 | 11.3 | 0.00 | 0.00 | 0.00 | 96 | 1019.2 |
| 20260905232435 | 21 | 10 | 14.5 | 17.7 | 0.00 | 0.00 | 0.00 | 95 | 1018.9 |
| 20260905231930 | 21 | 342 | 24.1 | 27.4 | 0.00 | 0.00 | 0.00 | 95 | 1018.9 |
| 20260905231426 | 21 | 352 | 8.0 | 11.3 | 0.00 | 0.00 | 0.00 | 95 | 1019.0 |
| 20260905230917 | 21 | 4 | 6.4 | 16.1 | 0.00 | 0.00 | 0.00 | 95 | 1019.2 |
| 20260905230414 | 21 | 335 | 17.7 | 17.7 | 0.00 | 0.00 | 0.00 | 95 | 1019.0 |
| 20260905225908 | 21 | 357 | 12.9 | 16.1 | 0.00 | 0.00 | 0.00 | 94 | 1018.8 |
| 20260905225403 | 21 | 37 | 8.0 | 17.7 | 0.00 | 0.00 | 0.00 | 94 | 1018.9 |
| 20260905224858 | 22 | 343 | 9.7 | 17.7 | 0.00 | 0.00 | 0.00 | 93 | 1018.7 |
| 20260905224353 | 22 | 12 | 6.4 | 12.9 | 0.00 | 0.00 | 0.00 | 93 | 1018.9 |
| 20260905223847 | 22 | 32 | 8.0 | 19.3 | 0.00 | 0.00 | 0.00 | 93 | 1018.6 |
| 20260905223346 | 22 | 39 | 14.5 | 22.5 | 0.00 | 0.00 | 0.00 | 93 | 1018.5 |
| 20260905222840 | 22 | 17 | 4.8 | 16.1 | 0.00 | 0.00 | 0.00 | 92 | 1018.6 |
| 20260905222339 | 22 | 352 | 8.0 | 24.1 | 0.00 | 0.00 | 0.00 | 92 | 1018.8 |
| 20260905221835 | 23 | 10 | 8.0 | 22.5 | 0.00 | 0.00 | 0.00 | 91 | 1018.9 |
| 20260905221332 | 23 | 355 | 6.4 | 17.7 | 0.00 | 0.00 | 0.00 | 92 | 1018.8 |
| 20260905220827 | 23 | 9 | 14.5 | 19.3 | 0.00 | 0.00 | 0.00 | 92 | 1018.5 |
| 20260905220323 | 23 | 6 | 9.7 | 20.9 | 0.00 | 0.00 | 0.00 | 91 | 1018.6 |
| 20260905215822 | 23 | 338 | 4.8 | 16.1 | 0.00 | 0.00 | 0.00 | 90 | 1018.3 |
| 20260905215318 | 23 | 24 | 6.4 | 11.3 | 0.00 | 0.00 | 0.00 | 90 | 1018.4 |
| 20260905214815 | 24 | 332 | 8.0 | 14.5 | 0.00 | 0.00 | 0.00 | 89 | 1018.2 |
| 20260905214310 | 23 | 350 | 3.2 | 14.5 | 0.00 | 0.00 | 0.00 | 90 | 1018.3 |
| 20260905213804 | 24 | 50 | 9.7 | 14.5 | 0.00 | 0.00 | 0.00 | 89 | 1018.1 |
| 20260905213300 | 24 | 343 | 19.3 | 20.9 | 0.00 | 0.00 | 0.00 | 89 | 1018.3 |
| 20260905212755 | 24 | 26 | 9.7 | 12.9 | 0.00 | 0.00 | 0.00 | 88 | 1017.9 |
| 20260905212254 | 25 | 2 | 14.5 | 27.4 | 0.00 | 0.00 | 0.00 | 86 | 1017.7 |
| 20260905211749 | 26 | 340 | 8.0 | 17.7 | 0.00 | 0.00 | 0.00 | 84 | 1017.8 |
| 20260905211244 | 25 | 14 | 6.4 | 12.9 | 0.00 | 0.00 | 0.00 | 85 | 1018.0 |
| 20260905210742 | 26 | 318 | 1.6 | 25.7 | 0.00 | 0.00 | 0.00 | 85 | 1017.9 |
| 20260905210241 | 25 | 325 | 8.0 | 24.1 | 0.00 | 0.00 | 0.00 | 86 | 1017.6 |
| 20260905205739 | 25 | 347 | 11.3 | 24.1 | 0.00 | 0.00 | 0.00 | 84 | 1017.9 |
| 20260905205235 | 25 | 330 | 3.2 | 16.1 | 0.00 | 0.00 | 0.00 | 85 | 1017.8 |
| 20260905204734 | 26 | 0 | 4.8 | 19.3 | 0.00 | 0.00 | 0.00 | 86 | 1017.7 |
| 20260905204230 | 25 | 24 | 11.3 | 19.3 | 0.00 | 0.00 | 0.00 | 85 | 1017.8 |
| 20260905203729 | 26 | 290 | 4.8 | 16.1 | 0.00 | 0.00 | 0.00 | 87 | 1017.6 |
| 20260905203225 | 26 | 337 | 6.4 | 16.1 | 0.00 | 0.00 | 0.00 | 86 | 1017.7 |
| 20260905202720 | 26 | 296 | 3.2 | 22.5 | 0.00 | 0.00 | 0.00 | 86 | 1017.7 |
| 20260905202215 | 27 | 353 | 4.8 | 14.5 | 0.00 | 0.00 | 0.00 | 84 | 1017.6 |
| 20260905201710 | 27 | 297 | 4.8 | 11.3 | 0.00 | 0.00 | 0.00 | 83 | 1017.6 |
| 20260905201205 | 26 | 24 | 3.2 | 19.3 | 0.00 | 0.00 | 0.00 | 83 | 1017.9 |
| 20260905200700 | 26 | 10 | 6.4 | 11.3 | 0.00 | 0.00 | 0.00 | 83 | 1017.8 |
| 20260905200155 | 26 | 356 | 12.9 | 19.3 | 0.00 | 0.00 | 0.00 | 82 | 1018.0 |
| 20260905195654 | 27 | 266 | 1.6 | 9.7 | 0.00 | 0.00 | 0.00 | 82 | 1017.9 |
| 20260905195149 | 26 | 5 | 4.8 | 11.3 | 0.00 | 0.00 | 0.00 | 83 | 1017.7 |
| 20260905194644 | 26 | 337 | 4.8 | 12.9 | 0.00 | 0.00 | 0.00 | 83 | 1018.0 |
| 20260905194138 | 27 | 350 | 6.4 | 19.3 | 0.00 | 0.00 | 0.00 | 81 | 1018.0 |
| 20260905193632 | 26 | 329 | 11.3 | 14.5 | 0.00 | 0.00 | 0.00 | 82 | 1017.9 |
| 20260905193127 | 27 | 15 | 4.8 | 11.3 | 0.00 | 0.00 | 0.00 | 81 | 1018.0 |
| 20260905192623 | 26 | 294 | 4.8 | 9.7 | 0.00 | 0.00 | 0.00 | 84 | 1018.2 |
| 20260905192119 | 26 | 2 | 4.8 | 12.9 | 0.00 | 0.00 | 0.00 | 85 | 1018.1 |
| 20260905191618 | 26 | 0 | 4.8 | 19.3 | 0.00 | 0.00 | 0.00 | 83 | 1018.2 |
| 20260905191117 | 26 | 302 | 3.2 | 11.3 | 0.00 | 0.00 | 0.00 | 85 | 1018.0 |
| 20260905190615 | 25 | 255 | 6.4 | 12.9 | 0.00 | 0.00 | 0.00 | 88 | 1018.1 |
| 20260905190114 | 25 | 348 | 6.4 | 16.1 | 0.00 | 0.00 | 0.00 | 86 | 1018.5 |
| 20260905185613 | 25 | 341 | 4.8 | 11.3 | 0.00 | 0.00 | 0.00 | 87 | 1018.4 |
| 20260905185108 | 25 | 309 | 6.4 | 20.9 | 0.00 | 0.00 | 0.00 | 88 | 1018.4 |
| 20260905184603 | 25 | 342 | 9.7 | 17.7 | 0.00 | 0.00 | 0.00 | 88 | 1018.5 |
| 20260905184102 | 25 | 352 | 6.4 | 9.7 | 0.00 | 0.00 | 0.00 | 88 | 1018.5 |
| 20260905183601 | 25 | 308 | 3.2 | 12.9 | 0.00 | 0.00 | 0.00 | 88 | 1018.2 |
| 20260905183057 | 25 | 54 | 4.8 | 19.3 | 0.00 | 0.00 | 0.00 | 86 | 1018.4 |
| 20260905182556 | 25 | 340 | 6.4 | 9.7 | 0.00 | 0.00 | 0.00 | 88 | 1018.5 |
| 20260905182050 | 25 | 313 | 6.4 | 12.9 | 0.00 | 0.00 | 0.00 | 89 | 1018.6 |
| 20260905181545 | 25 | 24 | 6.4 | 8.0 | 0.00 | 0.00 | 0.00 | 91 | 1018.4 |
| 20260905181044 | 24 | 351 | 3.2 | 16.1 | 0.00 | 0.00 | 0.00 | 91 | 1018.3 |
| 20260905180539 | 24 | 351 | 9.7 | 16.1 | 0.00 | 0.00 | 0.00 | 90 | 1018.5 |
| 20260905180035 | 24 | 273 | 8.0 | 12.9 | 0.00 | 0.00 | 0.00 | 91 | 1018.6 |
| 20260905175533 | 24 | 341 | 6.4 | 12.9 | 0.00 | 0.00 | 0.00 | 92 | 1018.4 |
| 20260905175030 | 24 | 9 | 20.9 | 20.9 | 0.00 | 0.00 | 0.00 | 91 | 1018.6 |
| 20260905174525 | 24 | 300 | 8.0 | 17.7 | 0.00 | 0.00 | 0.00 | 92 | 1018.1 |
| 20260905174020 | 24 | 1 | 9.7 | 16.1 | 0.00 | 0.00 | 0.00 | 91 | 1018.3 |
| 20260905173517 | 24 | 343 | 11.3 | 19.3 | 0.00 | 0.00 | 0.00 | 92 | 1018.5 |
| 20260905173012 | 24 | 320 | 6.4 | 16.1 | 0.00 | 0.00 | 0.00 | 93 | 1018.4 |
| 20260905172510 | 24 | 17 | 4.8 | 11.3 | 0.00 | 0.00 | 0.00 | 93 | 1018.6 |
| 20260905172006 | 24 | 358 | 4.8 | 8.0 | 0.00 | 0.00 | 0.00 | 93 | 1018.5 |
| 20260905171502 | 24 | 302 | 3.2 | 11.3 | 0.00 | 0.00 | 0.00 | 92 | 1018.4 |
| 20260905170958 | 24 | 283 | 0.0 | 4.8 | 0.00 | 0.00 | 0.00 | 93 | 1018.7 |
| 20260905170454 | 23 | 238 | 0.0 | 6.4 | 0.00 | 0.00 | 0.00 | 94 | 1018.7 |
| 20260905165953 | 23 | 353 | 4.8 | 11.3 | 0.00 | 0.00 | 0.00 | 94 | 1018.6 |
| 20260905165449 | 23 | 349 | 4.8 | 17.7 | 0.00 | 0.00 | 0.00 | 93 | 1018.7 |
| 20260905164944 | 23 | 324 | 3.2 | 12.9 | 0.00 | 0.00 | 0.00 | 93 | 1018.6 |
| 20260905164438 | 23 | 284 | 3.2 | 8.0 | 0.00 | 0.00 | 0.00 | 94 | 1018.6 |
| 20260905163933 | 23 | 309 | 4.8 | 11.3 | 0.00 | 0.00 | 0.00 | 94 | 1018.7 |
| 20260905163430 | 23 | 348 | 6.4 | 14.5 | 0.00 | 0.00 | 0.00 | 94 | 1018.5 |
| 20260905162925 | 23 | 354 | 6.4 | 14.5 | 0.00 | 0.00 | 0.00 | 94 | 1018.6 |
| 20260905162420 | 23 | 5 | 8.0 | 11.3 | 0.00 | 0.00 | 0.00 | 94 | 1018.7 |
| 20260905161916 | 23 | 317 | 4.8 | 14.5 | 0.00 | 0.00 | 0.00 | 94 | 1018.5 |
| 20260905161415 | 23 | 336 | 8.0 | 16.1 | 0.00 | 0.00 | 0.00 | 94 | 1018.7 |
| 20260905160912 | 23 | 344 | 1.6 | 12.9 | 0.00 | 0.00 | 0.00 | 94 | 1018.7 |
| 20260905160406 | 23 | 324 | 8.0 | 9.7 | 0.00 | 0.00 | 0.00 | 95 | 1018.5 |
| 20260905155900 | 22 | 8 | 17.7 | 17.7 | 0.00 | 0.00 | 0.00 | 96 | 1018.6 |
| 20260905155355 | 22 | 11 | 4.8 | 11.3 | 0.00 | 0.00 | 0.00 | 96 | 1018.5 |
| 20260905154854 | 22 | 343 | 22.5 | 22.5 | 0.00 | 0.00 | 0.00 | 96 | 1018.4 |
| 20260905154350 | 23 | 358 | 8.0 | 20.9 | 0.00 | 0.00 | 0.00 | 96 | 1018.5 |
| 20260905153845 | 23 | 330 | 4.8 | 12.9 | 0.00 | 0.00 | 0.00 | 96 | 1018.1 |
| 20260905153342 | 23 | 351 | 3.2 | 16.1 | 0.00 | 0.00 | 0.00 | 96 | 1018.3 |
| 20260905152841 | 23 | 12 | 4.8 | 9.7 | 0.00 | 0.00 | 0.00 | 95 | 1018.2 |
| 20260905152340 | 23 | 344 | 6.4 | 16.1 | 0.00 | 0.00 | 0.00 | 95 | 1018.1 |
| 20260905151835 | 23 | 12 | 8.0 | 12.9 | 0.00 | 0.00 | 0.00 | 95 | 1018.0 |
| 20260905151331 | 23 | 315 | 4.8 | 8.0 | 0.00 | 0.00 | 0.00 | 95 | 1018.2 |
| 20260905150825 | 23 | 17 | 3.2 | 11.3 | 0.00 | 0.00 | 0.00 | 96 | 1018.2 |
| 20260905150319 | 23 | 338 | 3.2 | 11.3 | 0.00 | 0.00 | 0.00 | 96 | 1018.1 |
| 20260905145817 | 23 | 19 | 6.4 | 12.9 | 0.00 | 0.00 | 0.00 | 97 | 1018.0 |
| 20260905145317 | 22 | 31 | 9.7 | 11.3 | 0.00 | 0.00 | 0.00 | 97 | 1018.0 |
| 20260905144815 | 23 | 321 | 3.2 | 12.9 | 0.00 | 0.00 | 0.00 | 97 | 1018.0 |
| 20260905144312 | 23 | 62 | 4.8 | 6.4 | 0.00 | 0.00 | 0.00 | 98 | 1017.8 |
| 20260905143810 | 22 | 11 | 6.4 | 16.1 | 0.00 | 0.00 | 0.00 | 98 | 1018.1 |
| 20260905143305 | 22 | 358 | 0.0 | 8.0 | 0.00 | 0.00 | 0.00 | 98 | 1018.0 |
| 20260905142803 | 22 | 45 | 4.8 | 12.9 | 0.00 | 0.00 | 0.00 | 98 | 1017.9 |
| 20260905142258 | 22 | 18 | 8.0 | 12.9 | 0.00 | 0.00 | 0.00 | 98 | 1017.7 |
| 20260905141754 | 22 | 354 | 4.8 | 9.7 | 0.00 | 0.00 | 0.00 | 98 | 1017.7 |
| 20260905141249 | 22 | 358 | 4.8 | 16.1 | 0.00 | 0.00 | 0.00 | 99 | 1017.9 |
| 20260905140744 | 22 | 215 | 0.0 | 11.3 | 0.00 | 0.00 | 0.00 | 99 | 1017.7 |
| 20260905140239 | 22 | 6 | 8.0 | 11.3 | 0.00 | 0.00 | 0.00 | 99 | 1017.5 |
| 20260905135738 | 22 | 348 | 8.0 | 11.3 | 0.00 | 0.00 | 0.00 | 99 | 1017.5 |
| 20260905135234 | 22 | 336 | 3.2 | 11.3 | 0.00 | 0.00 | 0.00 | 99 | 1017.8 |
| 20260905134733 | 22 | 335 | 8.0 | 12.9 | 0.00 | 0.00 | 0.00 | 99 | 1017.5 |
| 20260905134232 | 22 | 1 | 4.8 | 14.5 | 0.00 | 0.00 | 0.00 | 99 | 1017.5 |
| 20260905133728 | 22 | 299 | 3.2 | 14.5 | 0.00 | 0.00 | 0.00 | 99 | 1017.8 |
| 20260905133223 | 22 | 343 | 6.4 | 16.1 | 0.00 | 0.00 | 0.00 | 99 | 1017.7 |
| 20260905132721 | 22 | 0 | 4.8 | 9.7 | 0.00 | 0.00 | 0.00 | 99 | 1017.6 |
| 20260905132218 | 22 | 346 | 6.4 | 11.3 | 0.00 | 0.00 | 0.00 | 99 | 1017.9 |
| 20260905131713 | 22 | 10 | 3.2 | 9.7 | 0.00 | 0.00 | 0.00 | 99 | 1017.8 |
| 20260905131208 | 22 | 352 | 8.0 | 12.9 | 0.00 | 0.00 | 0.00 | 99 | 1017.7 |
| 20260905130702 | 22 | 349 | 6.4 | 9.7 | 0.00 | 0.00 | 0.00 | 99 | 1017.6 |
| 20260905130202 | 22 | 357 | 8.0 | 11.3 | 0.00 | 0.00 | 0.00 | 99 | 1017.5 |
| 20260905125656 | 22 | 333 | 4.8 | 12.9 | 0.00 | 0.00 | 0.00 | 99 | 1017.4 |
| 20260905125152 | 22 | 34 | 11.3 | 11.3 | 0.00 | 0.00 | 0.00 | 99 | 1017.3 |
| 20260905124648 | 22 | 356 | 6.4 | 12.9 | 0.00 | 0.00 | 0.00 | 99 | 1017.3 |
| 20260905124143 | 22 | 286 | 3.2 | 11.3 | 0.00 | 0.00 | 0.00 | 99 | 1016.9 |
| 20260905123633 | 21 | 357 | 11.3 | 14.5 | 0.00 | 0.00 | 0.00 | 99 | 1017.1 |
| 20260905123130 | 21 | 351 | 4.8 | 16.1 | 0.00 | 0.00 | 0.00 | 99 | 1017.1 |
| 20260905122630 | 21 | 348 | 4.8 | 9.7 | 0.00 | 0.00 | 0.00 | 99 | 1016.9 |
| 20260905122124 | 21 | 352 | 4.8 | 11.3 | 0.00 | 0.00 | 0.00 | 99 | 1016.9 |
| 20260905121619 | 21 | 267 | 4.8 | 11.3 | 0.00 | 0.00 | 0.00 | 99 | 1016.7 |
| 20260905121115 | 21 | 111 | 0.0 | 6.4 | 0.00 | 0.00 | 0.00 | 99 | 1016.4 |
| 20260905120614 | 21 | 47 | 0.0 | 4.8 | 0.00 | 0.00 | 0.00 | 99 | 1016.4 |
| 20260905120109 | 21 | 329 | 4.8 | 8.0 | 0.00 | 0.00 | 0.00 | 99 | 1016.4 |